TimeCDT,TemperatureF,Dew PointF,Humidity,Sea Level PressureIn,VisibilityMPH,Wind Direction,Wind SpeedMPH,Gust SpeedMPH,PrecipitationIn,Events,Conditions,WindDirDegrees,DateUTC
12:53 AM,84.9,79.0,82,29.78,10.0,WSW,10.4,-,N/A,,Partly Cloudy,250,2013-06-29 05:53:00
1:15 AM,84.2,77.0,79,29.80,10.0,West,26.5,33.4,N/A,Thunderstorm,Mostly Cloudy,270,2013-06-29 06:15:00
1:27 AM,75.2,66.2,73,29.79,2.5,West,16.1,36.8,0.04,Rain-Thunderstorm,Heavy Thunderstorms and Rain,280,2013-06-29 06:27:00
1:35 AM,75.2,68.0,78,29.77,8.0,SW,15.0,19.6,0.06,Rain-Thunderstorm,Light Thunderstorms and Rain,230,2013-06-29 06:35:00
1:53 AM,77.0,66.9,71,29.76,10.0,West,6.9,-,0.06,Thunderstorm,Thunderstorm,260,2013-06-29 06:53:00
2:23 AM,78.8,68.0,69,29.75,10.0,WSW,6.9,-,N/A,,Scattered Clouds,250,2013-06-29 07:23:00
2:53 AM,77.0,70.0,79,29.74,10.0,WSW,3.5,-,N/A,,Partly Cloudy,240,2013-06-29 07:53:00
3:53 AM,78.1,73.9,87,29.74,10.0,Calm,Calm,-,N/A,,Scattered Clouds,0,2013-06-29 08:53:00
4:45 AM,75.2,69.8,83,29.74,10.0,North,6.9,-,N/A,Thunderstorm,Partly Cloudy,10,2013-06-29 09:45:00
4:53 AM,75.9,70.0,82,29.75,10.0,North,8.1,-,N/A,Thunderstorm,Scattered Clouds,350,2013-06-29 09:53:00
5:10 AM,75.2,69.8,83,29.73,10.0,NNW,6.9,-,N/A,,Scattered Clouds,330,2013-06-29 10:10:00
5:53 AM,75.9,69.1,79,29.75,10.0,NNE,4.6,-,N/A,,Partly Cloudy,20,2013-06-29 10:53:00
6:53 AM,78.1,71.1,79,29.79,10.0,ENE,3.5,-,N/A,,Mostly Cloudy,70,2013-06-29 11:53:00
7:53 AM,78.1,73.0,84,29.80,10.0,Calm,Calm,-,N/A,,Overcast,0,2013-06-29 12:53:00
8:53 AM,79.0,73.0,82,29.81,10.0,SSW,3.5,-,N/A,,Scattered Clouds,210,2013-06-29 13:53:00
9:53 AM,82.0,70.0,67,29.80,10.0,WSW,6.9,-,N/A,,Mostly Cloudy,250,2013-06-29 14:53:00
10:53 AM,80.1,73.0,79,29.79,10.0,WSW,6.9,-,N/A,,Clear,250,2013-06-29 15:53:00
11:53 AM,82.0,73.0,74,29.79,10.0,SW,5.8,-,N/A,,Clear,230,2013-06-29 16:53:00
12:53 PM,87.1,73.0,63,29.78,10.0,WNW,6.9,-,N/A,,Partly Cloudy,300,2013-06-29 17:53:00
1:53 PM,86.0,73.9,67,29.76,10.0,Variable,4.6,-,N/A,,Mostly Cloudy,0,2013-06-29 18:53:00
2:53 PM,86.0,73.0,65,29.75,10.0,SSW,4.6,-,N/A,,Partly Cloudy,210,2013-06-29 19:53:00
3:53 PM,87.1,75.0,67,29.73,10.0,South,8.1,-,N/A,,Scattered Clouds,190,2013-06-29 20:53:00
4:53 PM,88.0,73.9,63,29.71,10.0,SSW,11.5,-,N/A,,Clear,200,2013-06-29 21:53:00
5:53 PM,84.0,72.0,67,29.70,10.0,SSW,10.4,-,N/A,,Clear,200,2013-06-29 22:53:00
6:53 PM,84.0,73.0,69,29.71,10.0,SW,9.2,-,N/A,,Clear,220,2013-06-29 23:53:00
7:23 PM,84.2,73.4,70,29.71,10.0,West,8.1,-,N/A,,Partly Cloudy,270,2013-06-30 00:23:00
7:53 PM,82.9,75.0,77,29.71,10.0,WSW,5.8,-,N/A,,Clear,240,2013-06-30 00:53:00
8:53 PM,82.9,75.9,79,29.74,10.0,West,9.2,-,N/A,,Clear,260,2013-06-30 01:53:00
9:53 PM,81.0,72.0,74,29.75,10.0,WNW,10.4,17.3,N/A,,Partly Cloudy,300,2013-06-30 02:53:00
10:53 PM,78.1,66.9,68,29.75,10.0,NNW,3.5,-,N/A,,Clear,330,2013-06-30 03:53:00
11:53 PM,75.9,70.0,82,29.76,10.0,Calm,Calm,-,N/A,,Mostly Cloudy,0,2013-06-30 04:53:00